Weather History for KCRW - October, 2012

Change the Weather History Date:

Monday, October 22, 2012

  Actual Average Record
Temperature  
Mean Temperature 59 °F 55 °F  
Max Temperature 79 °F 66 °F 88 °F (1920)
Min Temperature 39 °F 43 °F 23 °F (1952)
Degree Days  
Heating Degree Days 6 11  
Month to date heating degree days 203 174  
Since 1 July heating degree days 268 232  
Cooling Degree Days 0 0  
Month to date cooling degree days 13 16  
Year to date cooling degree days 1339 1089  
Growing Degree Days 9 (Base 50)    
Moisture  
Dew Point 45 °F    
Average Humidity 65    
Maximum Humidity 93    
Minimum Humidity 36    
Precipitation  
Precipitation 0.00 in 0.09 in 0.91 in (1983)
Month to date precipitation 0.89 1.83  
Year to date precipitation 31.83 36.19  
Snow  
Snow 0.00 in - - ()
Month to date snowfall 0.0  
Since 1 September snowfall 0.0  
Snow Depth 0.00 in    
Sea Level Pressure  
Sea Level Pressure 30.16 in    
Wind  
Wind Speed 1 mph (SSW)    
Max Wind Speed 12 mph    
Max Gust Speed 14 mph    
Visibility 10 miles    
Events      
T = Trace of Precipitation, MM = Missing Value Source: NWS Daily Summary

Daily Weather History Graph

Daily Weather History Graph

Search for Another Location

Airport or City:

Trip Planner

Search our weather history database for the weather conditions in past years. The results will help you decide how hot, cold, wet, or windy it might be!

Date:

Astronomy

Oct. 22, 2012 Rise Set
Actual Time 7:42 AM EDT 6:38 PM EDT
Civil Twilight 7:15 AM EDT 7:05 PM EDT
Nautical Twilight 6:44 AM EDT 7:35 PM EDT
Astronomical Twilight 6:14 AM EDT 8:06 PM EDT
Moon 2:40 PM EDT (10/22) 12:33 AM EDT (10/22)
Length of Visible Light 11h 49m
Length of Day
10h 55m
First Quarter, 56% of the Moon is Illuminated
Oct 22
First Quarter
Oct 29
Full
Nov 6
Last Quarter
Nov 13
New
Nov 20
First Quarter

Hourly Weather History & Observations

Time (EDT) Temp. Dew Point Humidity Pressure Visibility Wind Dir Wind Speed Gust Speed Precip Events Conditions
12:54 AM 43.0 °F 39.0 °F 86% 30.15 in 10.0 mi Calm Calm - N/A   Clear
1:54 AM 42.1 °F 39.0 °F 89% 30.15 in 10.0 mi Calm Calm - N/A   Clear
2:54 AM 41.0 °F 39.0 °F 93% 30.15 in 10.0 mi Calm Calm - N/A   Clear
3:54 AM 41.0 °F 37.9 °F 89% 30.17 in 10.0 mi Calm Calm - N/A   Clear
4:54 AM 39.9 °F 37.9 °F 93% 30.17 in 10.0 mi Calm Calm - N/A   Clear
5:54 AM 39.9 °F 37.9 °F 93% 30.19 in 10.0 mi Calm Calm - N/A   Clear
6:54 AM 39.0 °F 37.0 °F 93% 30.21 in 10.0 mi Calm Calm - N/A   Clear
7:54 AM 39.0 °F 37.0 °F 93% 30.21 in 10.0 mi Calm Calm - N/A   Scattered Clouds
8:54 AM 44.1 °F 39.9 °F 85% 30.21 in 10.0 mi Calm Calm - N/A   Clear
9:54 AM 50.0 °F 41.0 °F 71% 30.22 in 10.0 mi Calm Calm - N/A   Clear
10:54 AM 57.9 °F 44.1 °F 60% 30.21 in 10.0 mi Calm Calm - N/A   Clear
11:54 AM 66.0 °F 46.9 °F 50% 30.20 in 10.0 mi Calm Calm - N/A   Partly Cloudy
12:54 PM 73.0 °F 46.9 °F 39% 30.17 in 10.0 mi Calm Calm - N/A   Clear
1:54 PM 75.9 °F 48.0 °F 37% 30.14 in 10.0 mi Calm Calm - N/A   Partly Cloudy
2:54 PM 77.0 °F 48.9 °F 37% 30.12 in 10.0 mi West 4.6 mph - N/A   Partly Cloudy
3:54 PM 77.0 °F 50.0 °F 39% 30.12 in 10.0 mi Variable 3.5 mph - N/A   Partly Cloudy
4:54 PM 78.1 °F 50.0 °F 37% 30.12 in 10.0 mi Variable 3.5 mph - N/A   Partly Cloudy
5:54 PM 73.9 °F 48.9 °F 41% 30.12 in 10.0 mi SSW 5.8 mph - N/A   Partly Cloudy
6:54 PM 70.0 °F 50.0 °F 49% 30.13 in 10.0 mi SSE 4.6 mph - N/A   Clear
7:54 PM 68.0 °F 51.1 °F 55% 30.12 in 10.0 mi Calm Calm - N/A   Clear
8:54 PM 64.9 °F 51.1 °F 61% 30.13 in 10.0 mi Calm Calm - N/A   Clear
9:54 PM 61.0 °F 51.1 °F 70% 30.12 in 10.0 mi Calm Calm - N/A   Clear
10:54 PM 60.1 °F 51.1 °F 72% 30.12 in 10.0 mi Calm Calm - N/A   Clear
11:54 PM 57.9 °F 51.1 °F 78% 30.10 in 10.0 mi Calm Calm - N/A   Clear